Location: Napier
(39.4830°S, 176.9170°E)
Time: 10:26:55
(UTC+12:00)

Meteor 1-26 Rocket - Pass Details

Date: 24 January 2019
Orbit: 821 x 914 km, 81.3° (Epoch: 19 April)

Event Time Altitude Azimuth Distance (km) Brightness Sun altitude
Exits shadow 22:55:36 36° 0° (N) 1,370 4.9 -21.8°
Maximum altitude 22:58:05 81° 82° (E) 904 4.2 -22.1°
Drops below altitude 10° 23:03:53 10° 169° (S) 2,536 7.2 -22.8°
Sets 23:06:18 0° 169° (S) 3,466 8.0 -23.0°
